Weather History for Hayward, WI

Change the Weather History Date:

Tuesday, January 29, 2013

  Actual Average Record
Temperature  
Mean Temperature 30 °F -  
Max Temperature 33 °F 28 °F 39 °F (2008)
Min Temperature 27 °F -1 °F -24 °F (2004)
Degree Days  
Heating Degree Days 34    
Moisture  
Dew Point 28 °F    
Average Humidity 87    
Maximum Humidity 96    
Minimum Humidity 74    
Precipitation  
Precipitation 0.05 in - - ()
Sea Level Pressure  
Sea Level Pressure 29.60 in    
Wind  
Wind Speed 2 mph (East)    
Max Wind Speed 7 mph    
Max Gust Speed -    
Visibility 6 miles    
Events Rain    
Averages and records for this station are not official NWS values.
T = Trace of Precipitation, MM = Missing Value Source: NWS Daily Summary

Daily Weather History Graph

Daily Weather History Graph

Search for Another Location

Airport:

Trip Planner

Search our weather history database for the weather conditions in past years. The results will help you decide how hot, cold, wet, or windy it might be!

Date:

Astronomy

Jan. 29, 2013 Rise Set
Actual Time 7:31 AM CST 5:07 PM CST
Civil Twilight 6:59 AM CST 5:39 PM CST
Nautical Twilight 6:23 AM CST 6:15 PM CST
Astronomical Twilight 5:48 AM CST 6:50 PM CST
Moon 8:16 PM CST (1/29) 8:17 AM CST (1/29)
Length of Visible Light 10h 40m
Length of Day
9h 35m
Waning Gibbous, 93% of the Moon is Illuminated
Jan 29
Waning Gibbous
Feb 3
Last Quarter
Feb 10
New
Feb 17
First Quarter
Feb 25
Full

Hourly Weather History & Observations

Time (CST) Temp. Windchill Dew Point Humidity Pressure Visibility Wind Dir Wind Speed Gust Speed Precip Events Conditions
12:53 AM 30.9 °F 27.5 °F 27.0 °F 85% 29.67 in 7.0 mi ESE 3.5 mph - N/A   Overcast
1:44 AM 32.0 °F 27.5 °F 28.4 °F 87% 29.58 in 6.0 mi East 4.6 mph - 0.00 in   Overcast
1:53 AM 32.0 °F 27.5 °F 28.0 °F 85% 29.61 in 6.0 mi ESE 4.6 mph - 0.00 in   Overcast
2:23 AM 32.0 °F - 28.4 °F 87% 29.58 in 5.0 mi Calm Calm - 0.00 in Rain Light Freezing Rain
2:31 AM 32.0 °F - 28.4 °F 87% 29.59 in 2.5 mi Calm Calm - 0.02 in Rain Light Freezing Rain
2:37 AM 32.0 °F - 30.2 °F 93% 29.59 in 1.8 mi Calm Calm - 0.03 in Rain Light Freezing Rain
2:53 AM 32.0 °F - 30.0 °F 92% 29.61 in 2.0 mi Calm Calm - 0.05 in Rain Light Freezing Rain
3:17 AM 32.0 °F - 30.2 °F 93% 29.56 in 1.8 mi Calm Calm - 0.00 in Rain Light Freezing Rain
3:34 AM 33.8 °F - 30.2 °F 87% 29.55 in 2.5 mi Calm Calm - 0.00 in Rain Light Freezing Rain
3:53 AM 33.1 °F - 30.9 °F 92% 29.59 in 2.5 mi Calm Calm - 0.00 in Rain Light Freezing Rain
4:16 AM 32.0 °F 27.5 °F 30.2 °F 93% 29.53 in 1.5 mi ENE 4.6 mph - 0.00 in Rain Light Freezing Rain
4:53 AM 33.1 °F - 30.9 °F 92% 29.57 in 1.2 mi Calm Calm - 0.00 in Rain Light Freezing Rain
5:32 AM 33.8 °F - 30.2 °F 87% 29.51 in 1.0 mi Calm Calm - 0.00 in Rain Light Freezing Rain
5:53 AM 33.1 °F - 30.9 °F 92% 29.54 in 1.2 mi Calm Calm - 0.00 in   Overcast
6:09 AM 33.8 °F - 30.2 °F 87% 29.50 in 1.5 mi Calm Calm - N/A   Overcast
6:53 AM 33.1 °F - 30.9 °F 92% 29.55 in 1.8 mi Calm Calm - 0.00 in Rain Light Rain
7:05 AM 33.8 °F - 32.0 °F 93% 29.50 in 1.2 mi Calm Calm - 0.00 in   Overcast
7:53 AM 33.1 °F - 30.9 °F 92% 29.55 in 1.2 mi Calm Calm - 0.00 in   Overcast
8:04 AM 33.8 °F - 30.2 °F 87% 29.51 in 0.8 mi Calm Calm - N/A   Overcast
8:29 AM 32.0 °F - 30.2 °F 93% 29.51 in 1.0 mi Calm Calm - N/A   Overcast
8:39 AM 32.0 °F 28.7 °F 30.2 °F 93% 29.52 in 1.2 mi West 3.5 mph - N/A   Overcast
8:53 AM 32.0 °F - 30.9 °F 96% 29.56 in 2.0 mi Calm Calm - N/A   Overcast
9:08 AM 33.8 °F - 30.2 °F 87% 29.52 in 1.8 mi Calm Calm - N/A   Overcast
9:15 AM 32.0 °F - 30.2 °F 93% 29.51 in 2.5 mi Calm Calm - N/A   Overcast
9:37 AM 33.8 °F - 30.2 °F 87% 29.51 in 3.0 mi Calm Calm - N/A   Overcast
9:53 AM 33.1 °F 28.7 °F 30.0 °F 89% 29.56 in 4.0 mi Variable 4.6 mph - N/A   Overcast
10:53 AM 32.0 °F 27.5 °F 28.9 °F 88% 29.60 in 10.0 mi Variable 4.6 mph - N/A   Overcast
11:53 AM 32.0 °F 25.6 °F 28.9 °F 88% 29.61 in 10.0 mi Variable 6.9 mph - N/A   Overcast
12:53 PM 33.1 °F 30.0 °F 28.9 °F 85% 29.63 in 10.0 mi Variable 3.5 mph - N/A   Overcast
1:39 PM 33.8 °F 30.8 °F 28.4 °F 81% 29.59 in 10.0 mi WNW 3.5 mph - N/A   Overcast
1:53 PM 33.1 °F 28.7 °F 30.0 °F 89% 29.63 in 10.0 mi Variable 4.6 mph - N/A   Overcast
2:00 PM 33.8 °F - 28.4 °F 81% 29.58 in 10.0 mi Calm Calm - N/A   Overcast
2:53 PM 33.1 °F 27.7 °F 28.9 °F 85% 29.63 in 10.0 mi Variable 5.8 mph - N/A   Overcast
3:21 PM 33.8 °F - 28.4 °F 81% 29.59 in 10.0 mi Calm Calm - N/A   Overcast
3:53 PM 33.1 °F - 28.9 °F 85% 29.65 in 10.0 mi Calm Calm - N/A   Overcast
4:42 PM 33.8 °F 30.8 °F 28.4 °F 81% 29.61 in 10.0 mi Variable 3.5 mph - N/A   Overcast
4:53 PM 33.1 °F 30.0 °F 28.9 °F 85% 29.65 in 10.0 mi Variable 3.5 mph - N/A   Overcast
5:53 PM 30.9 °F 25.2 °F 27.0 °F 85% 29.67 in 10.0 mi Variable 5.8 mph - N/A   Overcast
6:53 PM 30.0 °F 25.2 °F 26.1 °F 85% 29.70 in 10.0 mi Variable 4.6 mph - N/A   Overcast
7:12 PM 30.2 °F 24.3 °F 26.6 °F 86% 29.66 in 10.0 mi Variable 5.8 mph - N/A   Overcast
7:30 PM 28.4 °F 23.3 °F 24.8 °F 86% 29.66 in 10.0 mi Variable 4.6 mph - N/A   Overcast
7:53 PM 28.9 °F 21.9 °F 24.1 °F 82% 29.68 in 10.0 mi Variable 6.9 mph - N/A   Overcast
8:32 PM 28.4 °F 22.2 °F 21.2 °F 74% 29.67 in 10.0 mi Variable 5.8 mph - N/A   Overcast
8:53 PM 28.0 °F 24.2 °F 21.9 °F 78% 29.73 in 10.0 mi Variable 3.5 mph - N/A   Overcast
9:53 PM 28.0 °F 24.2 °F 21.9 °F 78% 29.69 in 10.0 mi Variable 3.5 mph - N/A   Overcast
10:53 PM 28.0 °F 22.8 °F 21.9 °F 78% 29.73 in 10.0 mi Variable 4.6 mph - N/A   Overcast
11:53 PM 27.0 °F 23.0 °F 21.0 °F 78% 29.72 in 10.0 mi Variable 3.5 mph - N/A   Overcast